Weather History for Goshen, IN

Change the Weather History Date:

Thursday, March 7, 2013

  Actual Average Record
Temperature  
Mean Temperature 28 °F -  
Max Temperature 36 °F 43 °F 72 °F (1987)
Min Temperature 21 °F 27 °F -7 °F (1999)
Degree Days  
Heating Degree Days 36    
Moisture  
Dew Point 25 °F    
Average Humidity 77    
Maximum Humidity 96    
Minimum Humidity 57    
Precipitation  
Precipitation 0.00 in - - ()
Sea Level Pressure  
Sea Level Pressure 30.34 in    
Wind  
Wind Speed 6 mph (NW)    
Max Wind Speed 12 mph    
Max Gust Speed -    
Visibility 10 miles    
Events      
Averages and records for this station are not official NWS values.
T = Trace of Precipitation, MM = Missing Value Source: NWS Daily Summary

Daily Weather History Graph

Daily Weather History Graph

Search for Another Location

Airport:

Trip Planner

Search our weather history database for the weather conditions in past years. The results will help you decide how hot, cold, wet, or windy it might be!

Date:

Astronomy

Mar. 07, 2013 Rise Set
Actual Time 7:07 AM EST 6:41 PM EST
Civil Twilight 6:40 AM EST 7:08 PM EST
Nautical Twilight 6:08 AM EST 7:40 PM EST
Astronomical Twilight 5:35 AM EST 8:13 PM EST
Moon 4:09 AM EST (3/7) 2:25 PM EST (3/7)
Length of Visible Light 12h 28m
Length of Day
11h 33m
Waning Crescent, 20% of the Moon is Illuminated
Mar 7
Waning Crescent
Mar 11
New
Mar 19
First Quarter
Mar 27
Full
Apr 3
Last Quarter

Hourly Weather History & Observations

Time (EST) Temp. Windchill Dew Point Humidity Pressure Visibility Wind Dir Wind Speed Gust Speed Precip Events Conditions
12:30 AM 32.0 °F 26.4 °F 28.4 °F 87% 30.22 in 10.0 mi WNW 5.8 mph - N/A   Overcast
12:53 AM 32.0 °F 27.5 °F 28.9 °F 88% 30.25 in 10.0 mi WNW 4.6 mph - N/A   Overcast
1:45 AM 32.0 °F - 28.4 °F 87% 30.23 in 10.0 mi Calm Calm - N/A   Overcast
1:53 AM 32.0 °F - 28.9 °F 88% 30.26 in 10.0 mi Calm Calm - N/A   Overcast
2:06 AM 32.0 °F 28.7 °F 28.4 °F 87% 30.23 in 10.0 mi WNW 3.5 mph - N/A   Overcast
2:53 AM 32.0 °F 24.8 °F 28.9 °F 88% 30.26 in 10.0 mi WNW 8.1 mph - N/A   Overcast
3:53 AM 33.1 °F 24.4 °F 28.9 °F 85% 30.28 in 10.0 mi WNW 11.5 mph - N/A   Overcast
4:19 AM 33.8 °F 25.8 °F 28.4 °F 81% 30.26 in 10.0 mi WNW 10.4 mph - N/A   Overcast
4:53 AM 33.1 °F 26.1 °F 28.9 °F 85% 30.29 in 10.0 mi WNW 8.1 mph - N/A   Overcast
5:53 AM 32.0 °F 24.8 °F 28.9 °F 88% 30.31 in 10.0 mi WNW 8.1 mph - N/A   Overcast
6:53 AM 32.0 °F 24.2 °F 28.0 °F 85% 30.32 in 10.0 mi WNW 9.2 mph - N/A   Overcast
7:53 AM 32.0 °F 25.6 °F 28.0 °F 85% 30.34 in 10.0 mi NW 6.9 mph - N/A   Overcast
8:53 AM 33.1 °F 27.7 °F 28.0 °F 82% 30.36 in 10.0 mi NNW 5.8 mph - N/A   Overcast
9:53 AM 34.0 °F 27.2 °F 27.0 °F 75% 30.37 in 10.0 mi NNW 8.1 mph - N/A   Overcast
10:53 AM 35.1 °F 27.4 °F 21.0 °F 57% 30.38 in 10.0 mi North 10.4 mph - N/A   Overcast
11:53 AM 35.1 °F 29.3 °F 21.9 °F 59% 30.38 in 10.0 mi North 6.9 mph - N/A   Overcast
12:53 PM 36.0 °F 32.1 °F 21.9 °F 57% 30.37 in 10.0 mi North 4.6 mph - N/A   Overcast
1:53 PM 36.0 °F 32.1 °F 21.9 °F 57% 30.36 in 10.0 mi WNW 4.6 mph - N/A   Overcast
2:53 PM 36.0 °F 28.5 °F 21.9 °F 57% 30.36 in 10.0 mi NW 10.4 mph - N/A   Overcast
3:53 PM 35.1 °F 27.9 °F 23.0 °F 61% 30.37 in 10.0 mi NW 9.2 mph - N/A   Overcast
4:53 PM 35.1 °F 27.4 °F 25.0 °F 67% 30.37 in 10.0 mi NW 10.4 mph - N/A   Overcast
5:53 PM 35.1 °F 27.9 °F 24.1 °F 64% 30.39 in 10.0 mi NW 9.2 mph - N/A   Overcast
6:53 PM 34.0 °F 26.6 °F 23.0 °F 64% 30.40 in 10.0 mi NW 9.2 mph - N/A   Overcast
7:53 PM 30.9 °F 25.2 °F 23.0 °F 72% 30.41 in 10.0 mi WNW 5.8 mph - N/A   Mostly Cloudy
8:53 PM 27.0 °F - 19.9 °F 75% 30.41 in 10.0 mi Calm Calm - N/A   Clear
9:53 PM 21.9 °F 17.2 °F 21.0 °F 96% 30.42 in 10.0 mi NW 3.5 mph - N/A   Clear
10:53 PM 25.0 °F 19.3 °F 19.9 °F 81% 30.43 in 10.0 mi NNW 4.6 mph - N/A   Clear
11:53 PM 21.0 °F 16.2 °F 18.0 °F 88% 30.43 in 10.0 mi North 3.5 mph - N/A   Clear